Rhinelander Oneida County Airport
KRHI : now visible

Airfield :











YOU CAN JOIN US ON...

 
LOGIN :

Register | Disclaimer

   EN    FR    IT 

 









Legend :    VFR   Marginal VFR   IFR   Intensive IFR   Very Intensive IFR
Visi :
Ceiling :
>= 8 km
>= 3000ft
5 to 8 km
1000 to 3000 ft
1500m to 5 km
500 to 1000 ft
800 to 1500m
200 to 500 ft
< 800m
< 200 ft
Symbols :   Thunderstorms  Fog  Heavy snow  Heavy precipitations  Wind > 20 kt






- Airport Elevation : 1624 ft
- IATA code : RHI


KRHI - Rhinelander Oneida County

CURRENT METAR :
  • 232153Z AUTO 22011G18KT 10SM FEW031 BKN038 22/14 A2987 RMK AO2 SLP115 T02220144

EXPIRED METARs :
  • 232053Z AUTO 20011G19KT 160V230 10SM SCT043 25/14 A2986 RMK AO2 SLP111 T02500144 56007
  • 231953Z AUTO 20012G17KT 10SM SCT045 BKN055 24/13 A2987 RMK AO2 SLP114 T02440128

TAF KRHI
Valid from the 23 at 20:00 until the 24 at 18:00 UTC


231938Z 2320/2418 20010G17KT P6SM SCT045
FM241000 20007KT P6SM -SHRA BKN030
TEMPO 2410/2414 2SM TSRA OVC015CB
KZMP FIR / North America



MET'MAP, your aeronautical weather chart ! - Copyright ORBIFLY December 2007 - Disclaimer

ORBIFLY MET'MAP TEAM :

Programming & Development : Alexandra Zaïnal
Concept & original design : Baudouin d'Aumeries
Assistance for programming : Marc-Olivier Méhu
Technical & hardware support : Manuel Goepfert

Contact : metmap@orbifly.com




SOURCES & CREDITS :

   NOAA       Earth
Advisory